Simultaneous Nadir Overpasses (SNOs) Predictions

Prediction of SNOs between FY3D and NOAA-19 Satellite Orbit:

Table of predicted SNOs for the next 14.0 days since TLE Epoch: 7/16/2022
Index Date (FY3D) Time (FY3D) Lat,Lon (FY3D) SZA (FY3D ) Date (NOAA-19) Time (NOAA-19) Lat,Lon (NOAA-19) SZA (NOAA-19 ) Distance(km) Time Diff (sec)
1 07/17/2022 07:56:45 77.24, 45.52 56.61 07/17/2022 07:55:34 77.25, 44.12 56.74 34.44 71
2 07/17/2022 08:47:33 -77.40,-147.86 123.20 07/17/2022 08:46:30 -77.41,-147.83 123.16 2.22 63
3 07/17/2022 09:38:20 77.40, 19.44 56.81 07/17/2022 09:37:30 77.41, 19.38 56.84 1.89 50
4 07/17/2022 10:29:05 -77.42,-173.37 123.15 07/17/2022 10:28:30 -77.41,-173.36 123.15 1.73 35
5 07/17/2022 11:19:52 77.42, -6.07 56.86 07/17/2022 11:19:29 77.44, -5.95 56.88 3.24 23
6 07/17/2022 12:10:36 -77.41, 161.31 123.15 07/17/2022 12:10:29 -77.44, 161.32 123.12 3.66 7
7 07/17/2022 13:01:24 77.45, -31.58 56.91 07/17/2022 13:01:29 77.43, -31.48 56.88 3.15 5
8 07/17/2022 13:52:08 -77.44, 135.80 123.11 07/17/2022 13:52:29 -77.44, 135.79 123.11 0.39 21
9 07/17/2022 14:42:55 77.44, -56.89 56.90 07/17/2022 14:43:29 77.43, -57.01 56.89 3.26 34
10 07/17/2022 15:33:40 -77.46, 110.30 123.06 07/17/2022 15:34:29 -77.43, 110.26 123.10 3.94 49
11 07/17/2022 16:24:27 77.47, -82.40 56.95 07/17/2022 16:25:28 77.46, -82.34 56.92 1.60 61
12 07/17/2022 17:15:13 -77.53, 84.59 122.96 07/17/2022 17:16:27 -77.50, 85.14 123.05 13.52 74



Historial Predications of SNOs between FY3D and NOAA-19
